Weather in Trinec

Czech Republic     49°41′04″N   18°39′57″E
temp.,
°C
wind,
m/s
gust,
m/s
humid.,
%
clouds,
%
prec.,
mm/h
press.,
hPa
HPBL,
m
27 november, sat
sat2701:000wsw2499100 3.4 995190
04:00−1sw2398100 0.4 995202
07:00−3ssw2296100 0.4 99750
10:00+1s248385 0.0 997339
13:00+2s248499 0.0 997315
16:00+1ne0096100 0.0 99720
19:00+1ese11100100 1.3 99959
22:00+1sw02100100 1.2 999180
28 november, sun
sun2801:00+1n00100100 1.4 999143
04:00+1e1299100 0.0 998171
07:00+1ene23100100 0.1 998147
10:00+2ne11100100 1.7 99779
13:00+3sse12100100 2.9 99397
16:000w12100100 2.9 99499
19:000w2499100 4.9 994190
22:00−1w2499100 3.2 994324
29 november, mon
mon2901:00−1w3699100 5.6 995489
04:00−1wnw3899100 1.8 995698
07:00−1wnw4998100 3.6 997655
10:00−2w3897100 1.5 1000837
13:00−1wsw3996100 3.1 1000669
16:00−2wsw389797 1.1 1002507
19:00−2sw3797100 1.7 1004390
22:00−2wsw3996100 1.1 1005613
30 november, tue
tue3001:00−2wsw3897100 2.2 1007569
04:00−2wsw3798100 1.8 1008439
07:00−2w3995100 3.1 1010671
10:00−1wsw379499 0.8 1011551
13:00−1wsw5108798 0.9 1010948
16:00−1sw61382100 0.0 1008969
19:00−1sw81691100 0.8 10051146
22:00+1sw71589100 3.1 1004989
1 december, wed
wed101:00+1wsw6149897 3.8 1004854
04:00+1w6149898 0.9 10071070
07:00+1wsw499998 1.7 1009497
10:00+1ssw389971 0.1 1009287
13:00+2s411100100 0.3 1006490
16:00+2s412100100 0.2 1005580
19:00+3ssw6159898 0.4 1002846
22:00+3ssw71880100 0.0 1001538